Time,TemperatureF,DewpointF,PressureIn,WindDirection,WindDirectionDegrees,WindSpeedMPH,WindSpeedGustMPH,Humidity,HourlyPrecipIn,Conditions,Clouds,dailyrainin,SoftwareType,DateUTC
2014-12-18 00:23:00,27.0,-99.9,-100.00,NNE,23,16.0,23.0,-999,-99.99,,,-99.99,,2014-12-18 05:23:00,
2014-12-18 00:33:00,27.0,-99.9,-100.00,NNE,23,16.0,23.0,-999,-99.99,,,-99.99,,2014-12-18 05:33:00,
2014-12-18 00:40:00,27.0,-99.9,-100.00,NE,34,14.0,21.0,-999,-99.99,,,-99.99,,2014-12-18 05:40:00,
2014-12-18 01:22:00,27.0,-99.9,-100.00,NE,34,14.0,21.0,-999,-99.99,,,-99.99,,2014-12-18 06:22:00,
2014-12-18 01:32:00,27.0,-99.9,-100.00,NE,34,14.0,21.0,-999,-99.99,,,-99.99,,2014-12-18 06:32:00,
2014-12-18 01:40:00,27.0,-99.9,-100.00,NNE,28,17.0,19.0,-999,-99.99,,,-99.99,,2014-12-18 06:40:00,
2014-12-18 02:12:00,27.0,-99.9,-100.00,NNE,28,17.0,19.0,-999,-99.99,,,-99.99,,2014-12-18 07:12:00,
2014-12-18 02:22:00,27.0,-99.9,-100.00,NNE,28,17.0,19.0,-999,-99.99,,,-99.99,,2014-12-18 07:22:00,
2014-12-18 02:32:00,27.0,-99.9,-100.00,NNE,28,17.0,19.0,-999,-99.99,,,-99.99,,2014-12-18 07:32:00,
2014-12-18 02:40:00,27.0,-99.9,-100.00,NE,38,13.0,18.0,-999,-99.99,,,-99.99,,2014-12-18 07:40:00,
2014-12-18 03:22:00,27.0,-99.9,-100.00,NE,38,13.0,18.0,-999,-99.99,,,-99.99,,2014-12-18 08:22:00,
2014-12-18 03:32:00,27.0,-99.9,-100.00,NE,38,13.0,18.0,-999,-99.99,,,-99.99,,2014-12-18 08:32:00,
2014-12-18 03:40:00,27.0,-99.9,-100.00,NE,36,13.0,17.0,-999,-99.99,,,-99.99,,2014-12-18 08:40:00,
2014-12-18 04:22:00,27.0,-99.9,-100.00,NE,36,13.0,17.0,-999,-99.99,,,-99.99,,2014-12-18 09:22:00,
2014-12-18 04:34:00,27.0,-99.9,-100.00,NE,36,13.0,17.0,-999,-99.99,,,-99.99,,2014-12-18 09:34:00,
2014-12-18 04:40:00,27.0,-99.9,-100.00,NNE,28,7.0,13.0,-999,-99.99,,,-99.99,,2014-12-18 09:40:00,
2014-12-18 05:23:00,27.0,-99.9,-100.00,NNE,28,7.0,13.0,-999,-99.99,,,-99.99,,2014-12-18 10:23:00,
2014-12-18 05:33:00,27.0,-99.9,-100.00,NNE,28,7.0,13.0,-999,-99.99,,,-99.99,,2014-12-18 10:33:00,
2014-12-18 05:40:00,27.0,-99.9,-100.00,NE,35,11.0,14.0,-999,-99.99,,,-99.99,,2014-12-18 10:40:00,
2014-12-18 06:12:00,27.0,-99.9,-100.00,NE,35,11.0,14.0,-999,-99.99,,,-99.99,,2014-12-18 11:12:00,
2014-12-18 06:23:00,27.0,-99.9,-100.00,NE,35,11.0,14.0,-999,-99.99,,,-99.99,,2014-12-18 11:23:00,
2014-12-18 06:32:00,27.0,-99.9,-100.00,NE,35,11.0,14.0,-999,-99.99,,,-99.99,,2014-12-18 11:32:00,
2014-12-18 06:40:00,27.0,-99.9,-100.00,NE,47,11.0,13.0,-999,-99.99,,,-99.99,,2014-12-18 11:40:00,
2014-12-18 07:22:00,27.0,-99.9,-100.00,NE,47,11.0,13.0,-999,-99.99,,,-99.99,,2014-12-18 12:22:00,
2014-12-18 07:32:00,27.0,-99.9,-100.00,NE,47,11.0,13.0,-999,-99.99,,,-99.99,,2014-12-18 12:32:00,